Weather History for Lihue, HI

Change the Weather History Date:

Tuesday, August 5, 2014

  Actual Average Record
Temperature  
Mean Temperature 82 °F 80 °F  
Max Temperature 86 °F 85 °F 88 °F (1982)
Min Temperature 77 °F 75 °F 69 °F (1964)
Degree Days  
Heating Degree Days 0 0  
Month to date heating degree days 0 0  
Since 1 June heating degree days 0 0  
Since 1 July heating degree days 0 0  
Cooling Degree Days 17 15  
Month to date cooling degree days 84 74  
Year to date cooling degree days 2148 2146  
Since 1 June cooling degree days 927 907  
Growing Degree Days 30 (Base 50)    
Moisture  
Dew Point 68 °F    
Average Humidity 67    
Maximum Humidity 79    
Minimum Humidity 55    
Precipitation  
Precipitation 0.00 in 0.07 in 0.47 in (1964)
Month to date precipitation 0.01 0.36  
Year to date precipitation 20.38 19.68  
Snow  
Snow 0.00 in - - ()
Month to date snowfall 0.0  
Since 1 June snowfall 0.0  
Since 1 July snowfall 0.0  
Snow Depth 0.00 in    
Sea Level Pressure  
Sea Level Pressure 30.05 in    
Wind  
Wind Speed 16 mph (ENE)    
Max Wind Speed 23 mph    
Max Gust Speed 28 mph    
Visibility 10 miles    
Events      
T = Trace of Precipitation, MM = Missing Value Source: NWS Daily Summary

Daily Weather History Graph

Daily Weather History Graph

Search for Another Location

Airport:

Trip Planner

Search our weather history database for the weather conditions in past years. The results will help you decide how hot, cold, wet, or windy it might be!

Date:

Astronomy

Aug. 05, 2014 Rise Set
Actual Time 6:11 AM HST 7:14 PM HST
Civil Twilight 5:47 AM HST 7:38 PM HST
Nautical Twilight 5:19 AM HST 8:06 PM HST
Astronomical Twilight 4:51 AM HST 8:35 PM HST
Moon 2:38 PM HST (8/5) 1:08 AM HST (8/5)
Length of Visible Light 13h 50m
Length of Day
13h 03m
Waxing Gibbous, 70% of the Moon is Illuminated
Aug 5
Waxing Gibbous
Aug 10
Full
Aug 17
Last Quarter
Aug 25
New
Sep 2
First Quarter

Hourly Weather History & Observations

Time (HST) Temp. Heat Index Dew Point Humidity Pressure Visibility Wind Dir Wind Speed Gust Speed Precip Events Conditions
12:53 AM 79.0 °F - 70.0 °F 74% 30.05 in 10.0 mi ENE 17.3 mph - N/A   Overcast
1:53 AM 77.0 °F - 68.0 °F 74% 30.04 in 10.0 mi ENE 17.3 mph - N/A   Overcast
2:53 AM 78.1 °F - 70.0 °F 76% 30.02 in 10.0 mi East 18.4 mph 21.9 mph N/A   Overcast
3:53 AM 79.0 °F - 71.1 °F 77% 30.02 in 10.0 mi East 17.3 mph - N/A   Overcast
4:53 AM 78.1 °F - 68.0 °F 71% 30.03 in 10.0 mi East 17.3 mph - N/A   Overcast
5:53 AM 78.1 °F - 66.9 °F 68% 30.04 in 10.0 mi ENE 12.7 mph - N/A   Partly Cloudy
6:53 AM 79.0 °F - 68.0 °F 69% 30.05 in 10.0 mi ENE 13.8 mph - N/A   Scattered Clouds
7:53 AM 80.1 °F 82.7 °F 68.0 °F 67% 30.07 in 10.0 mi ENE 16.1 mph - N/A   Partly Cloudy
8:53 AM 81.0 °F 84.1 °F 69.1 °F 67% 30.08 in 10.0 mi ENE 16.1 mph - N/A   Mostly Cloudy
9:53 AM 82.0 °F 84.9 °F 68.0 °F 62% 30.08 in 10.0 mi East 16.1 mph - N/A   Overcast
10:53 AM 84.0 °F 87.0 °F 68.0 °F 58% 30.08 in 10.0 mi ENE 15.0 mph - N/A   Scattered Clouds
11:53 AM 84.0 °F 86.5 °F 66.9 °F 56% 30.07 in 10.0 mi ENE 16.1 mph - N/A   Clear
12:53 PM 84.0 °F 86.5 °F 66.9 °F 56% 30.05 in 10.0 mi ENE 18.4 mph - N/A   Clear
1:53 PM 84.9 °F 88.2 °F 68.0 °F 57% 30.05 in 10.0 mi ENE 16.1 mph - N/A   Clear
2:53 PM 84.9 °F 88.2 °F 68.0 °F 57% 30.04 in 10.0 mi NE 12.7 mph - N/A   Clear
3:53 PM 84.0 °F 87.8 °F 69.1 °F 61% 30.02 in 10.0 mi NE 17.3 mph - N/A   Partly Cloudy
4:24 PM 82.4 °F 85.4 °F 68.0 °F 62% 30.03 in 10.0 mi NE 15.0 mph - N/A   Mostly Cloudy
4:53 PM 82.0 °F 84.9 °F 68.0 °F 62% 30.02 in 10.0 mi NE 17.3 mph - N/A   Mostly Cloudy
5:53 PM 81.0 °F 83.3 °F 66.9 °F 62% 30.03 in 10.0 mi NE 17.3 mph - N/A   Scattered Clouds
6:53 PM 79.0 °F - 69.1 °F 72% 30.04 in 10.0 mi NE 18.4 mph - N/A   Mostly Cloudy
7:53 PM 78.1 °F - 66.9 °F 68% 30.06 in 10.0 mi NE 17.3 mph - N/A   Mostly Cloudy
8:53 PM 78.1 °F - 66.9 °F 68% 30.07 in 10.0 mi NE 17.3 mph - N/A   Scattered Clouds
9:53 PM 78.1 °F - 68.0 °F 71% 30.09 in 10.0 mi NE 16.1 mph - N/A   Partly Cloudy
10:53 PM 78.1 °F - 68.0 °F 71% 30.08 in 10.0 mi NE 18.4 mph - N/A   Clear
11:53 PM 78.1 °F - 66.9 °F 68% 30.06 in 10.0 mi NE 17.3 mph - N/A   Partly Cloudy